Time,TemperatureF,DewpointF,PressureIn,WindDirection,WindDirectionDegrees,WindSpeedMPH,WindSpeedGustMPH,Humidity,HourlyPrecipIn,Conditions,Clouds,dailyrainin,SoftwareType,DateUTC
2013-10-22 00:01:00,32.2,26.4,29.64,North,360,0.0,6.0,79,0.00,,---,0.17,VWS V14.01,2013-10-22 04:01:00,
2013-10-22 00:06:00,32.2,26.4,29.64,East,88,0.0,5.0,79,0.00,,---,0.00,VWS V14.01,2013-10-22 04:06:00,
2013-10-22 00:11:00,32.2,26.4,29.64,East,86,0.0,5.0,79,0.00,,---,0.00,VWS V14.01,2013-10-22 04:11:00,
2013-10-22 00:16:00,32.2,26.4,29.64,North,360,0.0,5.0,79,0.00,,---,0.00,VWS V14.01,2013-10-22 04:16:00,
2013-10-22 00:21:00,32.2,26.1,29.63,East,84,0.0,5.0,78,0.00,,---,0.00,VWS V14.01,2013-10-22 04:21:00,
2013-10-22 00:26:00,32.3,26.5,29.63,ESE,120,0.0,5.0,79,0.00,,---,0.00,VWS V14.01,2013-10-22 04:26:00,
2013-10-22 00:31:00,32.3,26.5,29.63,South,174,0.0,6.0,79,0.00,,---,0.00,VWS V14.01,2013-10-22 04:31:00,
2013-10-22 00:36:00,32.2,27.0,29.63,SSE,150,0.0,6.0,81,0.00,,---,0.00,VWS V14.01,2013-10-22 04:36:00,
2013-10-22 00:41:00,32.1,27.2,29.63,SSE,149,0.0,6.0,82,0.00,,---,0.00,VWS V14.01,2013-10-22 04:41:00,
2013-10-22 00:46:00,32.0,27.1,29.63,SSE,165,0.0,6.0,82,0.00,,---,0.00,VWS V14.01,2013-10-22 04:46:00,
2013-10-22 00:51:00,31.8,27.2,29.62,SSE,165,0.0,6.0,83,0.00,,---,0.00,VWS V14.01,2013-10-22 04:51:00,
2013-10-22 00:56:00,31.7,27.1,29.62,SSE,165,0.0,6.0,83,0.00,,---,0.00,VWS V14.01,2013-10-22 04:56:00,
2013-10-22 01:01:00,31.7,27.1,29.62,SSE,161,0.0,6.0,83,0.00,,---,0.00,VWS V14.01,2013-10-22 05:01:00,
2013-10-22 01:06:00,31.7,27.4,29.62,SSE,161,0.0,6.0,84,0.00,,---,0.00,VWS V14.01,2013-10-22 05:06:00,
2013-10-22 01:11:00,31.8,27.2,29.62,ESE,118,0.0,6.0,83,0.00,,---,0.00,VWS V14.01,2013-10-22 05:11:00,
2013-10-22 01:16:00,31.9,27.3,29.62,ESE,118,0.0,6.0,83,0.00,,---,0.00,VWS V14.01,2013-10-22 05:16:00,
2013-10-22 01:21:00,32.0,27.4,29.62,ESE,118,0.0,6.0,83,0.00,,---,0.00,VWS V14.01,2013-10-22 05:21:00,
2013-10-22 01:26:00,32.2,27.6,29.61,ESE,118,1.0,6.0,83,0.00,,---,0.00,VWS V14.01,2013-10-22 05:26:00,
2013-10-22 01:31:00,32.3,27.7,29.61,East,79,0.0,6.0,83,0.00,,---,0.00,VWS V14.01,2013-10-22 05:31:00,
2013-10-22 01:36:00,32.4,27.8,29.61,North,360,0.0,7.0,83,0.00,,---,0.00,VWS V14.01,2013-10-22 05:36:00,
2013-10-22 01:41:00,32.5,27.9,29.61,North,360,0.0,7.0,83,0.00,,---,0.00,VWS V14.01,2013-10-22 05:41:00,
2013-10-22 01:46:00,32.6,28.0,29.61,North,360,0.0,7.0,83,0.00,,---,0.00,VWS V14.01,2013-10-22 05:46:00,
2013-10-22 01:51:00,32.7,28.1,29.61,North,360,0.0,7.0,83,0.00,,---,0.00,VWS V14.01,2013-10-22 05:51:00,
2013-10-22 01:56:00,32.8,28.2,29.61,North,360,0.0,7.0,83,0.00,,---,0.00,VWS V14.01,2013-10-22 05:56:00,
2013-10-22 02:01:00,32.8,28.2,29.61,North,360,0.0,0.0,83,0.00,,---,0.00,VWS V14.01,2013-10-22 06:01:00,
2013-10-22 02:06:00,32.9,28.3,29.61,North,360,1.0,2.0,83,0.00,,---,0.00,VWS V14.01,2013-10-22 06:06:00,
2013-10-22 02:11:00,33.0,28.4,29.61,North,360,0.0,2.0,83,0.00,,---,0.00,VWS V14.01,2013-10-22 06:11:00,
2013-10-22 02:16:00,33.1,28.5,29.61,North,360,2.0,3.0,83,0.00,,---,0.00,VWS V14.01,2013-10-22 06:16:00,
2013-10-22 02:21:00,33.2,28.6,29.61,North,360,0.0,3.0,83,0.00,,---,0.00,VWS V14.01,2013-10-22 06:21:00,
2013-10-22 02:26:00,33.2,28.6,29.61,North,360,0.0,3.0,83,0.00,,---,0.00,VWS V14.01,2013-10-22 06:26:00,
2013-10-22 02:31:00,33.3,29.0,29.61,North,360,0.0,3.0,84,0.00,,---,0.00,VWS V14.01,2013-10-22 06:31:00,
2013-10-22 02:36:00,33.4,29.1,29.62,North,360,0.0,3.0,84,0.00,,---,0.00,VWS V14.01,2013-10-22 06:36:00,
2013-10-22 02:41:00,33.5,28.9,29.61,North,360,1.0,5.0,83,0.00,,---,0.00,VWS V14.01,2013-10-22 06:41:00,
2013-10-22 02:46:00,33.6,29.3,29.61,North,360,0.0,5.0,84,0.00,,---,0.00,VWS V14.01,2013-10-22 06:46:00,
2013-10-22 02:51:00,33.8,29.5,29.61,WNW,297,0.0,5.0,84,0.00,,---,0.00,VWS V14.01,2013-10-22 06:51:00,
2013-10-22 02:56:00,33.9,29.6,29.61,WNW,297,0.0,5.0,84,0.00,,---,0.00,VWS V14.01,2013-10-22 06:56:00,
2013-10-22 03:01:00,34.1,29.8,29.61,WNW,297,0.0,5.0,84,0.00,,---,0.00,VWS V14.01,2013-10-22 07:01:00,
2013-10-22 03:06:00,34.3,30.3,29.61,SSW,211,0.0,5.0,85,0.00,,---,0.00,VWS V14.01,2013-10-22 07:06:00,
2013-10-22 03:11:00,34.4,30.1,29.61,SSW,211,0.0,5.0,84,0.00,,---,0.00,VWS V14.01,2013-10-22 07:11:00,
2013-10-22 03:16:00,34.4,30.4,29.61,SSW,211,0.0,5.0,85,0.00,,---,0.00,VWS V14.01,2013-10-22 07:16:00,
2013-10-22 03:21:00,34.6,30.6,29.62,SSW,211,0.0,5.0,85,0.00,,---,0.00,VWS V14.01,2013-10-22 07:21:00,
2013-10-22 03:26:00,34.7,30.7,29.61,SSW,211,0.0,5.0,85,0.00,,---,0.00,VWS V14.01,2013-10-22 07:26:00,
2013-10-22 03:31:00,34.8,31.0,29.62,SSW,211,1.0,5.0,86,0.00,,---,0.00,VWS V14.01,2013-10-22 07:31:00,
2013-10-22 03:36:00,34.9,31.1,29.61,SSW,211,0.0,5.0,86,0.00,,---,0.00,VWS V14.01,2013-10-22 07:36:00,
2013-10-22 03:41:00,36.0,33.9,29.62,North,360,8.0,15.0,92,0.00,,---,0.00,VWS V14.01,2013-10-22 07:41:00,
2013-10-22 03:46:00,36.7,34.3,29.62,North,360,1.0,15.0,91,0.00,,---,0.00,VWS V14.01,2013-10-22 07:46:00,
2013-10-22 03:51:00,37.0,34.6,29.62,NW,305,3.0,15.0,91,0.01,,---,0.01,VWS V14.01,2013-10-22 07:51:00,
2013-10-22 03:56:00,37.4,35.3,29.62,North,360,3.0,21.0,92,0.03,,---,0.03,VWS V14.01,2013-10-22 07:56:00,
2013-10-22 04:01:00,38.8,37.0,29.62,North,360,12.0,12.0,93,0.00,,---,0.03,VWS V14.01,2013-10-22 08:01:00,
2013-10-22 04:06:00,39.9,36.3,29.63,North,360,14.0,31.0,87,0.01,,---,0.04,VWS V14.01,2013-10-22 08:06:00,
2013-10-22 04:11:00,40.5,36.7,29.63,North,360,18.0,31.0,86,0.01,,---,0.04,VWS V14.01,2013-10-22 08:11:00,
2013-10-22 04:16:00,40.3,35.9,29.63,NW,315,12.0,32.0,84,0.01,,---,0.04,VWS V14.01,2013-10-22 08:16:00,
2013-10-22 04:21:00,40.8,37.2,29.63,ESE,105,16.0,32.0,87,0.01,,---,0.04,VWS V14.01,2013-10-22 08:21:00,
2013-10-22 04:26:00,40.7,36.0,29.64,North,360,18.0,32.0,83,0.01,,---,0.04,VWS V14.01,2013-10-22 08:26:00,
2013-10-22 04:31:00,40.9,36.1,29.64,North,360,17.0,32.0,83,0.01,,---,0.04,VWS V14.01,2013-10-22 08:31:00,
2013-10-22 04:36:00,40.7,35.3,29.64,North,360,23.0,32.0,81,0.01,,---,0.04,VWS V14.01,2013-10-22 08:36:00,
2013-10-22 04:41:00,41.2,35.8,29.65,North,360,17.0,33.0,81,0.01,,---,0.04,VWS V14.01,2013-10-22 08:41:00,
2013-10-22 04:46:00,41.3,36.2,29.64,ENE,65,19.0,33.0,82,0.02,,---,0.05,VWS V14.01,2013-10-22 08:46:00,
2013-10-22 04:51:00,40.9,36.1,29.65,North,360,17.0,33.0,83,0.02,,---,0.05,VWS V14.01,2013-10-22 08:51:00,
2013-10-22 04:56:00,40.7,36.2,29.65,North,360,15.0,33.0,84,0.02,,---,0.05,VWS V14.01,2013-10-22 08:56:00,
2013-10-22 05:01:00,41.0,36.8,29.65,North,360,10.0,33.0,85,0.02,,---,0.05,VWS V14.01,2013-10-22 09:01:00,
2013-10-22 05:06:00,41.5,36.7,29.65,North,360,21.0,33.0,83,0.02,,---,0.05,VWS V14.01,2013-10-22 09:06:00,
2013-10-22 05:11:00,41.3,36.8,29.66,North,360,25.0,33.0,84,0.02,,---,0.05,VWS V14.01,2013-10-22 09:11:00,
2013-10-22 05:16:00,40.7,36.0,29.66,East,97,12.0,33.0,83,0.02,,---,0.05,VWS V14.01,2013-10-22 09:16:00,
2013-10-22 05:21:00,40.5,36.3,29.66,ENE,73,21.0,33.0,85,0.02,,---,0.05,VWS V14.01,2013-10-22 09:21:00,
2013-10-22 05:26:00,40.5,36.0,29.67,North,360,20.0,33.0,84,0.02,,---,0.05,VWS V14.01,2013-10-22 09:26:00,
2013-10-22 05:31:00,40.7,36.8,29.66,North,360,11.0,33.0,86,0.02,,---,0.05,VWS V14.01,2013-10-22 09:31:00,
2013-10-22 05:36:00,41.1,36.3,29.66,ESE,117,13.0,33.0,83,0.02,,---,0.05,VWS V14.01,2013-10-22 09:36:00,
2013-10-22 05:41:00,41.6,36.5,29.67,East,80,15.0,33.0,82,0.02,,---,0.05,VWS V14.01,2013-10-22 09:41:00,
2013-10-22 05:46:00,41.6,35.9,29.67,North,360,16.0,33.0,80,0.02,,---,0.05,VWS V14.01,2013-10-22 09:46:00,
2013-10-22 05:51:00,41.7,35.4,29.67,North,360,21.0,33.0,78,0.02,,---,0.05,VWS V14.01,2013-10-22 09:51:00,
2013-10-22 05:56:00,41.8,37.3,29.68,North,360,19.0,33.0,84,0.02,,---,0.05,VWS V14.01,2013-10-22 09:56:00,
2013-10-22 06:01:00,41.5,35.8,29.67,North,360,20.0,33.0,80,0.02,,---,0.05,VWS V14.01,2013-10-22 10:01:00,
2013-10-22 06:06:00,41.5,35.8,29.68,North,360,17.0,29.0,80,0.00,,---,0.05,VWS V14.01,2013-10-22 10:06:00,
2013-10-22 06:11:00,41.1,35.7,29.68,North,360,18.0,31.0,81,0.00,,---,0.05,VWS V14.01,2013-10-22 10:11:00,
2013-10-22 06:16:00,41.2,35.2,29.68,ESE,105,20.0,31.0,79,0.00,,---,0.05,VWS V14.01,2013-10-22 10:16:00,
2013-10-22 06:21:00,41.3,35.6,29.69,ENE,78,20.0,31.0,80,0.00,,---,0.05,VWS V14.01,2013-10-22 10:21:00,
2013-10-22 06:26:00,41.4,36.3,29.69,North,360,21.0,31.0,82,0.00,,---,0.05,VWS V14.01,2013-10-22 10:26:00,
2013-10-22 06:31:00,41.0,36.2,29.69,North,360,13.0,37.0,83,0.00,,---,0.05,VWS V14.01,2013-10-22 10:31:00,
2013-10-22 06:36:00,40.7,36.5,29.69,North,360,14.0,37.0,85,0.00,,---,0.05,VWS V14.01,2013-10-22 10:36:00,
2013-10-22 06:41:00,40.9,35.8,29.69,ENE,77,14.0,37.0,82,0.00,,---,0.05,VWS V14.01,2013-10-22 10:41:00,
2013-10-22 06:46:00,40.9,36.1,29.69,North,360,30.0,37.0,83,0.00,,---,0.05,VWS V14.01,2013-10-22 10:46:00,
2013-10-22 06:51:00,41.1,36.0,29.69,North,360,24.0,37.0,82,0.00,,---,0.05,VWS V14.01,2013-10-22 10:51:00,
2013-10-22 06:56:00,41.3,35.6,29.70,North,360,23.0,37.0,80,0.00,,---,0.05,VWS V14.01,2013-10-22 10:56:00,
2013-10-22 07:01:00,41.3,35.3,29.70,North,360,25.0,37.0,79,0.00,,---,0.05,VWS V14.01,2013-10-22 11:01:00,
2013-10-22 07:06:00,41.3,35.9,29.70,East,90,12.0,37.0,81,0.00,,---,0.05,VWS V14.01,2013-10-22 11:06:00,
2013-10-22 07:11:00,41.6,36.2,29.71,North,360,24.0,37.0,81,0.00,,---,0.05,VWS V14.01,2013-10-22 11:11:00,
2013-10-22 07:16:00,41.5,35.2,29.71,North,360,17.0,37.0,78,0.00,,---,0.05,VWS V14.01,2013-10-22 11:16:00,
2013-10-22 07:21:00,41.5,35.8,29.71,North,360,16.0,37.0,80,0.00,,---,0.05,VWS V14.01,2013-10-22 11:21:00,
2013-10-22 07:25:00,40.9,36.1,29.71,North,360,19.0,37.0,83,0.00,,---,0.05,VWS V14.01,2013-10-22 11:25:00,
2013-10-22 07:30:00,41.2,36.1,29.72,North,360,19.0,37.0,82,0.00,,---,0.05,VWS V14.01,2013-10-22 11:30:00,
2013-10-22 07:35:00,41.3,36.8,29.72,North,360,19.0,37.0,84,0.00,,---,0.05,VWS V14.01,2013-10-22 11:35:00,
2013-10-22 07:40:00,41.1,36.3,29.72,East,96,16.0,37.0,83,0.00,,---,0.05,VWS V14.01,2013-10-22 11:40:00,
2013-10-22 07:45:00,40.8,36.0,29.72,East,86,19.0,37.0,83,0.00,,---,0.05,VWS V14.01,2013-10-22 11:45:00,
2013-10-22 07:50:00,40.6,35.8,29.72,West,273,15.0,37.0,83,0.00,,---,0.05,VWS V14.01,2013-10-22 11:50:00,
2013-10-22 07:55:00,41.1,35.7,29.73,East,90,15.0,37.0,81,0.00,,---,0.05,VWS V14.01,2013-10-22 11:55:00,
2013-10-22 08:00:00,41.3,35.6,29.73,North,360,17.0,37.0,80,0.00,,---,0.05,VWS V14.01,2013-10-22 12:00:00,
2013-10-22 08:05:00,41.2,36.7,29.73,East,86,14.0,28.0,84,0.00,,---,0.05,VWS V14.01,2013-10-22 12:05:00,
2013-10-22 08:10:00,41.3,35.6,29.73,North,360,20.0,29.0,80,0.00,,---,0.05,VWS V14.01,2013-10-22 12:10:00,
2013-10-22 08:15:00,40.9,35.2,29.74,North,360,18.0,33.0,80,0.00,,---,0.05,VWS V14.01,2013-10-22 12:15:00,
2013-10-22 08:20:00,41.4,35.4,29.73,North,360,10.0,33.0,79,0.00,,---,0.05,VWS V14.01,2013-10-22 12:20:00,
2013-10-22 08:25:00,41.6,34.9,29.74,East,82,12.0,33.0,77,0.00,,---,0.05,VWS V14.01,2013-10-22 12:25:00,
2013-10-22 08:30:00,41.7,35.7,29.74,East,90,20.0,33.0,79,0.00,,---,0.05,VWS V14.01,2013-10-22 12:30:00,
2013-10-22 08:36:00,41.5,35.5,29.74,North,360,18.0,33.0,79,0.00,,---,0.05,VWS V14.01,2013-10-22 12:36:00,
2013-10-22 08:41:00,41.7,35.4,29.75,NW,309,8.0,33.0,78,0.00,,---,0.05,VWS V14.01,2013-10-22 12:41:00,
2013-10-22 08:46:00,41.8,35.8,29.75,North,360,14.0,33.0,79,0.00,,---,0.05,VWS V14.01,2013-10-22 12:46:00,
2013-10-22 08:51:00,41.6,35.6,29.75,North,360,16.0,33.0,79,0.00,,---,0.05,VWS V14.01,2013-10-22 12:51:00,
2013-10-22 08:56:00,41.8,34.8,29.75,North,360,19.0,33.0,76,0.00,,---,0.05,VWS V14.01,2013-10-22 12:56:00,
2013-10-22 09:01:00,41.9,34.6,29.75,North,360,18.0,33.0,75,0.00,,---,0.05,VWS V14.01,2013-10-22 13:01:00,
2013-10-22 09:06:00,41.9,34.2,29.76,North,360,18.0,33.0,74,0.00,,---,0.05,VWS V14.01,2013-10-22 13:06:00,
2013-10-22 09:11:00,42.0,36.3,29.76,North,360,15.0,33.0,80,0.00,,---,0.05,VWS V14.01,2013-10-22 13:11:00,
2013-10-22 09:16:00,41.3,34.3,29.76,North,360,17.0,33.0,76,0.00,,---,0.05,VWS V14.01,2013-10-22 13:16:00,
2013-10-22 09:21:00,41.7,35.4,29.76,North,360,17.0,33.0,78,0.00,,---,0.05,VWS V14.01,2013-10-22 13:21:00,
2013-10-22 09:26:00,42.0,35.7,29.76,North,360,21.0,33.0,78,0.00,,---,0.05,VWS V14.01,2013-10-22 13:26:00,
2013-10-22 09:31:00,42.0,34.3,29.77,North,360,18.0,33.0,74,0.00,,---,0.05,VWS V14.01,2013-10-22 13:31:00,
2013-10-22 09:36:00,42.0,35.3,29.77,ESE,117,15.0,33.0,77,0.00,,---,0.05,VWS V14.01,2013-10-22 13:36:00,
2013-10-22 09:41:00,41.7,36.6,29.77,North,360,13.0,33.0,82,0.00,,---,0.05,VWS V14.01,2013-10-22 13:41:00,
2013-10-22 09:46:00,40.9,35.8,29.77,North,360,21.0,33.0,82,0.00,,---,0.05,VWS V14.01,2013-10-22 13:46:00,
2013-10-22 09:51:00,40.7,36.5,29.77,NW,315,8.0,33.0,85,0.00,,---,0.05,VWS V14.01,2013-10-22 13:51:00,
2013-10-22 09:56:00,41.2,36.4,29.77,North,360,9.0,33.0,83,0.00,,---,0.05,VWS V14.01,2013-10-22 13:56:00,
2013-10-22 10:01:00,41.7,36.0,29.77,North,360,9.0,33.0,80,0.00,,---,0.05,VWS V14.01,2013-10-22 14:01:00,
2013-10-22 10:06:00,42.0,36.0,29.77,ENE,76,16.0,25.0,79,0.00,,---,0.05,VWS V14.01,2013-10-22 14:06:00,
2013-10-22 10:11:00,41.8,34.5,29.77,NW,305,10.0,25.0,75,0.00,,---,0.05,VWS V14.01,2013-10-22 14:11:00,
2013-10-22 10:16:00,41.8,35.5,29.78,North,360,14.0,27.0,78,0.00,,---,0.05,VWS V14.01,2013-10-22 14:16:00,
2013-10-22 10:21:00,41.8,35.1,29.78,North,360,14.0,27.0,77,0.00,,---,0.05,VWS V14.01,2013-10-22 14:21:00,
2013-10-22 10:26:00,42.1,36.1,29.78,North,360,13.0,27.0,79,0.00,,---,0.05,VWS V14.01,2013-10-22 14:26:00,
2013-10-22 10:31:00,42.0,34.3,29.78,ENE,78,13.0,27.0,74,0.00,,---,0.05,VWS V14.01,2013-10-22 14:31:00,
2013-10-22 10:36:00,41.9,34.2,29.78,North,360,16.0,27.0,74,0.00,,---,0.05,VWS V14.01,2013-10-22 14:36:00,
2013-10-22 10:41:00,41.9,34.9,29.78,North,360,6.0,27.0,76,0.00,,---,0.05,VWS V14.01,2013-10-22 14:41:00,
2013-10-22 10:46:00,41.8,36.1,29.79,North,360,14.0,27.0,80,0.00,,---,0.05,VWS V14.01,2013-10-22 14:46:00,
2013-10-22 10:50:00,41.3,35.6,29.79,North,360,20.0,27.0,80,0.00,,---,0.05,VWS V14.01,2013-10-22 14:50:00,
2013-10-22 10:55:00,41.4,35.7,29.79,North,360,14.0,27.0,80,0.00,,---,0.05,VWS V14.01,2013-10-22 14:55:00,
2013-10-22 11:00:00,41.7,36.0,29.79,ENE,76,13.0,27.0,80,0.00,,---,0.05,VWS V14.01,2013-10-22 15:00:00,
2013-10-22 11:05:00,41.7,34.7,29.80,North,360,16.0,27.0,76,0.00,,---,0.05,VWS V14.01,2013-10-22 15:05:00,
2013-10-22 11:10:00,41.7,35.0,29.80,North,360,7.0,27.0,77,0.00,,---,0.05,VWS V14.01,2013-10-22 15:10:00,
2013-10-22 11:15:00,41.7,35.7,29.80,North,360,19.0,27.0,79,0.00,,---,0.05,VWS V14.01,2013-10-22 15:15:00,
2013-10-22 11:20:00,41.6,35.9,29.80,East,80,17.0,27.0,80,0.00,,---,0.05,VWS V14.01,2013-10-22 15:20:00,
2013-10-22 11:25:00,41.6,36.2,29.80,North,360,18.0,27.0,81,0.00,,---,0.05,VWS V14.01,2013-10-22 15:25:00,
2013-10-22 11:30:00,41.4,35.7,29.80,North,360,11.0,27.0,80,0.00,,---,0.05,VWS V14.01,2013-10-22 15:30:00,
2013-10-22 11:35:00,41.3,35.0,29.80,East,90,11.0,27.0,78,0.00,,---,0.05,VWS V14.01,2013-10-22 15:35:00,
2013-10-22 11:40:00,41.2,36.1,29.80,North,360,14.0,27.0,82,0.00,,---,0.05,VWS V14.01,2013-10-22 15:40:00,
2013-10-22 11:45:00,41.1,36.6,29.81,North,360,16.0,27.0,84,0.00,,---,0.05,VWS V14.01,2013-10-22 15:45:00,
2013-10-22 11:50:00,41.1,36.3,29.81,North,360,12.0,27.0,83,0.00,,---,0.05,VWS V14.01,2013-10-22 15:50:00,
2013-10-22 11:55:00,41.2,36.1,29.82,North,360,13.0,27.0,82,0.00,,---,0.05,VWS V14.01,2013-10-22 15:55:00,
2013-10-22 12:00:00,41.1,35.4,29.81,North,360,16.0,27.0,80,0.00,,---,0.05,VWS V14.01,2013-10-22 16:00:00,
2013-10-22 12:05:00,41.1,35.1,29.82,North,360,11.0,22.0,79,0.00,,---,0.05,VWS V14.01,2013-10-22 16:05:00,
2013-10-22 12:10:00,41.0,36.2,29.82,North,360,17.0,22.0,83,0.00,,---,0.05,VWS V14.01,2013-10-22 16:10:00,
2013-10-22 12:15:00,41.0,35.6,29.82,North,360,15.0,22.0,81,0.00,,---,0.05,VWS V14.01,2013-10-22 16:15:00,
2013-10-22 12:20:00,41.1,36.0,29.82,North,360,15.0,26.0,82,0.00,,---,0.05,VWS V14.01,2013-10-22 16:20:00,
2013-10-22 12:25:00,41.2,35.5,29.82,North,360,16.0,26.0,80,0.00,,---,0.05,VWS V14.01,2013-10-22 16:25:00,
2013-10-22 12:30:00,41.1,35.7,29.83,North,360,17.0,26.0,81,0.00,,---,0.05,VWS V14.01,2013-10-22 16:30:00,
2013-10-22 12:35:00,41.1,36.0,29.83,North,360,15.0,26.0,82,0.00,,---,0.05,VWS V14.01,2013-10-22 16:35:00,
2013-10-22 12:40:00,40.8,35.7,29.83,North,360,12.0,26.0,82,0.00,,---,0.05,VWS V14.01,2013-10-22 16:40:00,
2013-10-22 12:45:00,40.5,35.8,29.83,North,360,20.0,26.0,83,0.00,,---,0.05,VWS V14.01,2013-10-22 16:45:00,
2013-10-22 12:50:00,40.4,35.7,29.83,North,360,11.0,26.0,83,0.00,,---,0.05,VWS V14.01,2013-10-22 16:50:00,
2013-10-22 12:55:00,40.9,35.2,29.83,East,94,11.0,26.0,80,0.00,,---,0.05,VWS V14.01,2013-10-22 16:55:00,
2013-10-22 13:00:00,41.1,34.5,29.83,North,360,15.0,26.0,77,0.00,,---,0.05,VWS V14.01,2013-10-22 17:00:00,
2013-10-22 13:05:00,41.1,34.5,29.83,North,360,6.0,26.0,77,0.00,,---,0.05,VWS V14.01,2013-10-22 17:05:00,
2013-10-22 13:10:00,41.1,34.1,29.83,North,360,13.0,26.0,76,0.00,,---,0.05,VWS V14.01,2013-10-22 17:10:00,
2013-10-22 13:15:00,41.2,35.2,29.83,North,360,13.0,26.0,79,0.00,,---,0.05,VWS V14.01,2013-10-22 17:15:00,
2013-10-22 13:20:00,41.1,34.5,29.83,North,360,15.0,26.0,77,0.00,,---,0.05,VWS V14.01,2013-10-22 17:20:00,
2013-10-22 13:25:00,40.9,33.6,29.83,ESE,107,11.0,26.0,75,0.00,,---,0.05,VWS V14.01,2013-10-22 17:25:00,
2013-10-22 13:30:00,41.1,34.5,29.83,North,360,16.0,26.0,77,0.00,,---,0.05,VWS V14.01,2013-10-22 17:30:00,
2013-10-22 13:35:00,41.1,34.5,29.84,East,90,15.0,26.0,77,0.00,,---,0.05,VWS V14.01,2013-10-22 17:35:00,
2013-10-22 13:40:00,41.1,33.5,29.84,North,360,12.0,26.0,74,0.00,,---,0.05,VWS V14.01,2013-10-22 17:40:00,
2013-10-22 13:45:00,41.0,33.4,29.84,North,360,18.0,26.0,74,0.00,,---,0.05,VWS V14.01,2013-10-22 17:45:00,
2013-10-22 13:50:00,41.0,34.0,29.84,North,360,18.0,26.0,76,0.00,,---,0.05,VWS V14.01,2013-10-22 17:50:00,
2013-10-22 13:55:00,40.9,32.9,29.84,North,360,14.0,26.0,73,0.00,,---,0.05,VWS V14.01,2013-10-22 17:55:00,
2013-10-22 14:00:00,41.2,34.5,29.84,North,360,10.0,26.0,77,0.00,,---,0.05,VWS V14.01,2013-10-22 18:00:00,
2013-10-22 14:05:00,41.3,34.7,29.84,North,360,14.0,18.0,77,0.00,,---,0.05,VWS V14.01,2013-10-22 18:05:00,
2013-10-22 14:10:00,41.2,34.2,29.84,North,360,14.0,18.0,76,0.00,,---,0.05,VWS V14.01,2013-10-22 18:10:00,
2013-10-22 14:15:00,41.1,35.1,29.83,North,360,10.0,19.0,79,0.00,,---,0.05,VWS V14.01,2013-10-22 18:15:00,
2013-10-22 14:20:00,40.6,35.2,29.83,ESE,120,18.0,27.0,81,0.00,,---,0.05,VWS V14.01,2013-10-22 18:20:00,
2013-10-22 14:25:00,39.5,34.5,29.84,North,360,7.0,27.0,82,0.00,,---,0.05,VWS V14.01,2013-10-22 18:25:00,
2013-10-22 14:30:00,39.4,35.3,29.84,East,95,9.0,27.0,85,0.00,,---,0.05,VWS V14.01,2013-10-22 18:30:00,
2013-10-22 14:35:00,40.2,34.5,29.83,East,90,9.0,27.0,80,0.00,,---,0.05,VWS V14.01,2013-10-22 18:35:00,
2013-10-22 14:40:00,40.5,32.9,29.84,East,81,15.0,27.0,74,0.00,,---,0.05,VWS V14.01,2013-10-22 18:40:00,
2013-10-22 14:45:00,40.8,34.2,29.84,North,360,11.0,27.0,77,0.00,,---,0.05,VWS V14.01,2013-10-22 18:45:00,
2013-10-22 14:50:00,41.3,34.3,29.84,North,360,19.0,27.0,76,0.00,,---,0.05,VWS V14.01,2013-10-22 18:50:00,
2013-10-22 14:55:00,41.3,34.0,29.84,North,360,12.0,27.0,75,0.00,,---,0.05,VWS V14.01,2013-10-22 18:55:00,
2013-10-22 15:00:00,41.2,33.2,29.84,North,360,10.0,27.0,73,0.00,,---,0.05,VWS V14.01,2013-10-22 19:00:00,
2013-10-22 15:05:00,41.2,33.5,29.84,North,360,14.0,27.0,74,0.00,,---,0.05,VWS V14.01,2013-10-22 19:05:00,
2013-10-22 15:10:00,41.2,34.2,29.84,North,360,9.0,27.0,76,0.00,,---,0.05,VWS V14.01,2013-10-22 19:10:00,
2013-10-22 15:15:00,41.1,33.5,29.84,North,360,12.0,27.0,74,0.00,,---,0.05,VWS V14.01,2013-10-22 19:15:00,
2013-10-22 15:20:00,41.0,33.4,29.84,North,360,12.0,27.0,74,0.00,,---,0.05,VWS V14.01,2013-10-22 19:20:00,
2013-10-22 15:25:00,41.0,33.4,29.84,East,87,15.0,27.0,74,0.00,,---,0.05,VWS V14.01,2013-10-22 19:25:00,
2013-10-22 15:30:00,41.1,33.1,29.84,ESE,109,10.0,27.0,73,0.00,,---,0.05,VWS V14.01,2013-10-22 19:30:00,
2013-10-22 15:35:00,41.1,33.5,29.84,North,360,9.0,27.0,74,0.00,,---,0.05,VWS V14.01,2013-10-22 19:35:00,
2013-10-22 15:40:00,41.1,33.1,29.85,East,101,10.0,27.0,73,0.00,,---,0.05,VWS V14.01,2013-10-22 19:40:00,
2013-10-22 15:45:00,41.0,32.3,29.85,North,360,14.0,27.0,71,0.00,,---,0.05,VWS V14.01,2013-10-22 19:45:00,
2013-10-22 15:50:00,40.9,33.9,29.85,ENE,74,14.0,27.0,76,0.00,,---,0.05,VWS V14.01,2013-10-22 19:50:00,
2013-10-22 15:55:00,40.8,31.8,29.85,North,360,15.0,27.0,70,0.00,,---,0.05,VWS V14.01,2013-10-22 19:55:00,
2013-10-22 16:00:00,40.9,32.6,29.85,East,79,10.0,27.0,72,0.00,,---,0.05,VWS V14.01,2013-10-22 20:00:00,
2013-10-22 16:05:00,40.8,32.8,29.85,North,360,13.0,20.0,73,0.00,,---,0.05,VWS V14.01,2013-10-22 20:05:00,
2013-10-22 16:10:00,40.7,32.4,29.86,North,360,7.0,21.0,72,0.00,,---,0.05,VWS V14.01,2013-10-22 20:10:00,
2013-10-22 16:15:00,40.6,32.3,29.86,North,360,14.0,22.0,72,0.00,,---,0.05,VWS V14.01,2013-10-22 20:15:00,
2013-10-22 16:20:00,40.7,32.7,29.86,North,360,14.0,22.0,73,0.00,,---,0.05,VWS V14.01,2013-10-22 20:20:00,
2013-10-22 16:25:00,40.6,35.5,29.86,North,360,20.0,25.0,82,0.00,,---,0.05,VWS V14.01,2013-10-22 20:25:00,
2013-10-22 16:30:00,39.4,35.0,29.87,ESE,104,16.0,27.0,84,0.00,,---,0.05,VWS V14.01,2013-10-22 20:30:00,
2013-10-22 16:35:00,38.8,34.7,29.87,North,360,16.0,27.0,85,0.00,,---,0.05,VWS V14.01,2013-10-22 20:35:00,
2013-10-22 16:40:00,38.7,34.9,29.87,North,360,17.0,27.0,86,0.00,,---,0.05,VWS V14.01,2013-10-22 20:40:00,
2013-10-22 16:45:00,38.5,34.1,29.87,North,360,7.0,27.0,84,0.00,,---,0.05,VWS V14.01,2013-10-22 20:45:00,
2013-10-22 16:50:00,38.6,34.5,29.87,North,360,13.0,27.0,85,0.00,,---,0.05,VWS V14.01,2013-10-22 20:50:00,
2013-10-22 16:55:00,38.5,34.7,29.87,North,360,12.0,27.0,86,0.00,,---,0.05,VWS V14.01,2013-10-22 20:55:00,
2013-10-22 17:00:00,38.2,34.7,29.87,North,360,10.0,27.0,87,0.00,,---,0.05,VWS V14.01,2013-10-22 21:00:00,
2013-10-22 17:05:00,38.3,34.8,29.87,North,360,10.0,27.0,87,0.00,,---,0.05,VWS V14.01,2013-10-22 21:05:00,
2013-10-22 17:10:00,38.5,34.7,29.88,North,360,6.0,27.0,86,0.00,,---,0.05,VWS V14.01,2013-10-22 21:10:00,
2013-10-22 17:15:00,38.6,34.8,29.88,North,360,13.0,27.0,86,0.00,,---,0.05,VWS V14.01,2013-10-22 21:15:00,
2013-10-22 17:20:00,39.2,34.8,29.87,East,79,6.0,27.0,84,0.00,,---,0.05,VWS V14.01,2013-10-22 21:20:00,
2013-10-22 17:25:00,39.6,34.0,29.87,North,360,16.0,27.0,80,0.00,,---,0.05,VWS V14.01,2013-10-22 21:25:00,
2013-10-22 17:30:00,40.0,35.0,29.87,North,360,14.0,27.0,82,0.00,,---,0.05,VWS V14.01,2013-10-22 21:30:00,
2013-10-22 17:35:00,40.1,34.8,29.87,North,360,15.0,27.0,81,0.00,,---,0.05,VWS V14.01,2013-10-22 21:35:00,
2013-10-22 17:40:00,40.2,34.2,29.87,North,360,15.0,27.0,79,0.00,,---,0.05,VWS V14.01,2013-10-22 21:40:00,
2013-10-22 17:45:00,40.4,33.5,29.88,North,360,16.0,27.0,76,0.00,,---,0.05,VWS V14.01,2013-10-22 21:45:00,
2013-10-22 17:50:00,40.5,32.9,29.88,North,360,11.0,27.0,74,0.00,,---,0.05,VWS V14.01,2013-10-22 21:50:00,
2013-10-22 17:55:00,40.6,33.3,29.88,East,84,12.0,27.0,75,0.00,,---,0.05,VWS V14.01,2013-10-22 21:55:00,
2013-10-22 18:00:00,40.6,33.0,29.88,North,360,6.0,27.0,74,0.00,,---,0.05,VWS V14.01,2013-10-22 22:00:00,
2013-10-22 18:05:00,40.5,33.5,29.88,North,360,10.0,22.0,76,0.00,,---,0.05,VWS V14.01,2013-10-22 22:05:00,
2013-10-22 18:10:00,40.5,32.9,29.88,ENE,74,11.0,22.0,74,0.00,,---,0.05,VWS V14.01,2013-10-22 22:10:00,
2013-10-22 18:15:00,40.4,32.8,29.89,North,360,7.0,22.0,74,0.00,,---,0.05,VWS V14.01,2013-10-22 22:15:00,
2013-10-22 18:20:00,40.4,32.1,29.89,North,360,13.0,22.0,72,0.00,,---,0.05,VWS V14.01,2013-10-22 22:20:00,
2013-10-22 18:25:00,40.4,32.4,29.89,North,360,13.0,23.0,73,0.00,,---,0.05,VWS V14.01,2013-10-22 22:25:00,
2013-10-22 18:30:00,40.2,31.6,29.89,North,360,13.0,23.0,71,0.00,,---,0.05,VWS V14.01,2013-10-22 22:30:00,
2013-10-22 18:35:00,40.1,31.5,29.89,North,360,13.0,23.0,71,0.00,,---,0.05,VWS V14.01,2013-10-22 22:35:00,
2013-10-22 18:40:00,40.0,31.7,29.89,North,360,14.0,23.0,72,0.00,,---,0.05,VWS V14.01,2013-10-22 22:40:00,
2013-10-22 18:45:00,40.1,31.5,29.89,North,360,14.0,26.0,71,0.00,,---,0.05,VWS V14.01,2013-10-22 22:45:00,
2013-10-22 18:50:00,40.0,32.4,29.89,North,360,14.0,26.0,74,0.00,,---,0.05,VWS V14.01,2013-10-22 22:50:00,
2013-10-22 18:55:00,40.0,31.7,29.89,North,360,10.0,26.0,72,0.00,,---,0.05,VWS V14.01,2013-10-22 22:55:00,
2013-10-22 19:00:00,39.9,30.6,29.90,North,360,12.0,26.0,69,0.00,,---,0.05,VWS V14.01,2013-10-22 23:00:00,
2013-10-22 19:05:00,39.7,31.1,29.89,ESE,107,9.0,26.0,71,0.00,,---,0.05,VWS V14.01,2013-10-22 23:05:00,
2013-10-22 19:10:00,39.6,31.3,29.90,East,85,9.0,26.0,72,0.00,,---,0.05,VWS V14.01,2013-10-22 23:10:00,
2013-10-22 19:15:00,39.7,31.4,29.90,North,360,15.0,26.0,72,0.00,,---,0.05,VWS V14.01,2013-10-22 23:15:00,
2013-10-22 19:20:00,39.7,30.7,29.90,ESE,105,5.0,26.0,70,0.00,,---,0.05,VWS V14.01,2013-10-22 23:20:00,
2013-10-22 19:25:00,39.4,30.8,29.90,East,94,4.0,26.0,71,0.00,,---,0.05,VWS V14.01,2013-10-22 23:25:00,
2013-10-22 19:30:00,39.5,31.9,29.90,ESE,105,7.0,26.0,74,0.00,,---,0.05,VWS V14.01,2013-10-22 23:30:00,
2013-10-22 19:35:00,39.5,31.2,29.90,ENE,66,13.0,26.0,72,0.00,,---,0.05,VWS V14.01,2013-10-22 23:35:00,
2013-10-22 19:40:00,39.3,31.4,29.90,North,360,17.0,26.0,73,0.00,,---,0.05,VWS V14.01,2013-10-22 23:40:00,
2013-10-22 19:45:00,39.3,30.7,29.90,North,360,13.0,26.0,71,0.00,,---,0.05,VWS V14.01,2013-10-22 23:45:00,
2013-10-22 19:50:00,39.2,31.0,29.90,North,360,5.0,26.0,72,0.00,,---,0.05,VWS V14.01,2013-10-22 23:50:00,
2013-10-22 19:55:00,39.2,31.3,29.90,North,360,14.0,26.0,73,0.00,,---,0.05,VWS V14.01,2013-10-22 23:55:00,
2013-10-22 20:00:00,39.2,29.9,29.91,North,360,15.0,26.0,69,0.00,,---,0.05,VWS V14.01,2013-10-23 00:00:00,
2013-10-22 20:05:00,39.1,30.5,29.90,North,360,12.0,15.0,71,0.00,,---,0.05,VWS V14.01,2013-10-23 00:05:00,
2013-10-22 20:10:00,39.0,30.1,29.90,North,360,5.0,15.0,70,0.00,,---,0.05,VWS V14.01,2013-10-23 00:10:00,
2013-10-22 20:15:00,39.1,33.2,29.90,East,100,5.0,27.0,79,0.00,,---,0.05,VWS V14.01,2013-10-23 00:15:00,
2013-10-22 20:20:00,38.6,33.3,29.91,North,360,9.0,27.0,81,0.00,,---,0.05,VWS V14.01,2013-10-23 00:20:00,
2013-10-22 20:25:00,38.1,32.5,29.91,ESE,109,4.0,27.0,80,0.00,,---,0.05,VWS V14.01,2013-10-23 00:25:00,
2013-10-22 20:30:00,38.2,32.9,29.91,North,360,19.0,27.0,81,0.00,,---,0.05,VWS V14.01,2013-10-23 00:30:00,
2013-10-22 20:35:00,36.9,33.1,29.92,North,360,12.0,27.0,86,0.00,,---,0.05,VWS V14.01,2013-10-23 00:35:00,
2013-10-22 20:40:00,36.0,32.8,29.91,North,360,3.0,27.0,88,0.00,,---,0.05,VWS V14.01,2013-10-23 00:40:00,
2013-10-22 20:45:00,35.9,32.7,29.91,North,360,0.0,27.0,88,0.00,,---,0.05,VWS V14.01,2013-10-23 00:45:00,
2013-10-22 20:50:00,36.4,32.9,29.91,North,360,1.0,27.0,87,0.00,,---,0.05,VWS V14.01,2013-10-23 00:50:00,
2013-10-22 20:55:00,37.2,31.9,29.91,North,360,5.0,27.0,81,0.00,,---,0.05,VWS V14.01,2013-10-23 00:55:00,
2013-10-22 21:00:00,38.1,31.2,29.90,North,360,12.0,27.0,76,0.00,,---,0.05,VWS V14.01,2013-10-23 01:00:00,
2013-10-22 21:05:00,38.7,30.8,29.90,North,360,16.0,27.0,73,0.00,,---,0.05,VWS V14.01,2013-10-23 01:05:00,
2013-10-22 21:10:00,39.0,31.1,29.91,North,360,9.0,27.0,73,0.00,,---,0.05,VWS V14.01,2013-10-23 01:10:00,
2013-10-22 21:15:00,39.0,30.1,29.90,East,101,11.0,27.0,70,0.00,,---,0.05,VWS V14.01,2013-10-23 01:15:00,
2013-10-22 21:20:00,39.0,30.8,29.90,North,360,12.0,27.0,72,0.00,,---,0.05,VWS V14.01,2013-10-23 01:20:00,
2013-10-22 21:25:00,39.2,30.6,29.90,East,87,10.0,27.0,71,0.00,,---,0.05,VWS V14.01,2013-10-23 01:25:00,
2013-10-22 21:30:00,39.3,31.0,29.90,North,360,6.0,27.0,72,0.00,,---,0.05,VWS V14.01,2013-10-23 01:30:00,
2013-10-22 21:35:00,39.6,32.0,29.90,North,360,11.0,27.0,74,0.00,,---,0.05,VWS V14.01,2013-10-23 01:35:00,
2013-10-22 21:40:00,39.7,31.8,29.90,North,360,12.0,27.0,73,0.00,,---,0.05,VWS V14.01,2013-10-23 01:40:00,
2013-10-22 21:45:00,39.7,31.1,29.89,North,360,5.0,27.0,71,0.00,,---,0.05,VWS V14.01,2013-10-23 01:45:00,
2013-10-22 21:50:00,39.7,31.1,29.90,East,82,4.0,27.0,71,0.00,,---,0.05,VWS V14.01,2013-10-23 01:50:00,
2013-10-22 21:55:00,39.6,31.0,29.90,North,360,12.0,27.0,71,0.00,,---,0.05,VWS V14.01,2013-10-23 01:55:00,
2013-10-22 22:00:00,39.6,33.3,29.90,North,360,12.0,27.0,78,0.00,,---,0.05,VWS V14.01,2013-10-23 02:00:00,
2013-10-22 22:05:00,38.8,31.9,29.90,North,360,4.0,16.0,76,0.00,,---,0.05,VWS V14.01,2013-10-23 02:05:00,
2013-10-22 22:10:00,38.4,32.8,29.90,North,360,3.0,16.0,80,0.00,,---,0.05,VWS V14.01,2013-10-23 02:10:00,
2013-10-22 22:15:00,38.2,33.2,29.90,North,360,14.0,16.0,82,0.00,,---,0.05,VWS V14.01,2013-10-23 02:15:00,
2013-10-22 22:20:00,37.9,33.2,29.90,North,360,10.0,16.0,83,0.00,,---,0.05,VWS V14.01,2013-10-23 02:20:00,
2013-10-22 22:25:00,37.8,34.0,29.90,ENE,67,14.0,22.0,86,0.00,,---,0.05,VWS V14.01,2013-10-23 02:25:00,
2013-10-22 22:30:00,37.4,33.9,29.91,North,360,15.0,22.0,87,0.00,,---,0.05,VWS V14.01,2013-10-23 02:30:00,
2013-10-22 22:35:00,36.6,33.4,29.91,East,82,14.0,22.0,88,0.00,,---,0.05,VWS V14.01,2013-10-23 02:35:00,
2013-10-22 22:40:00,35.9,33.0,29.90,North,360,10.0,22.0,89,0.00,,---,0.05,VWS V14.01,2013-10-23 02:40:00,
2013-10-22 22:45:00,35.6,32.4,29.90,North,360,4.0,22.0,88,0.00,,---,0.05,VWS V14.01,2013-10-23 02:45:00,
2013-10-22 22:50:00,35.8,31.7,29.90,North,360,2.0,22.0,85,0.00,,---,0.05,VWS V14.01,2013-10-23 02:50:00,
2013-10-22 22:55:00,36.4,31.7,29.90,North,360,6.0,22.0,83,0.00,,---,0.05,VWS V14.01,2013-10-23 02:55:00,
2013-10-22 23:00:00,37.5,32.5,29.89,North,360,10.0,22.0,82,0.00,,---,0.05,VWS V14.01,2013-10-23 03:00:00,
2013-10-22 23:05:00,38.0,32.1,29.90,North,360,11.0,22.0,79,0.00,,---,0.05,VWS V14.01,2013-10-23 03:05:00,
2013-10-22 23:10:00,38.2,31.3,29.89,North,360,10.0,22.0,76,0.00,,---,0.05,VWS V14.01,2013-10-23 03:10:00,
2013-10-22 23:15:00,38.7,32.8,29.89,North,360,7.0,22.0,79,0.00,,---,0.05,VWS V14.01,2013-10-23 03:15:00,
2013-10-22 23:20:00,39.2,32.6,29.89,North,360,10.0,22.0,77,0.00,,---,0.05,VWS V14.01,2013-10-23 03:20:00,
2013-10-22 23:25:00,39.3,31.7,29.89,North,360,10.0,22.0,74,0.00,,---,0.05,VWS V14.01,2013-10-23 03:25:00,
2013-10-22 23:30:00,39.5,31.6,29.89,North,360,6.0,22.0,73,0.01,,---,0.06,VWS V14.01,2013-10-23 03:30:00,
2013-10-22 23:35:00,39.5,31.6,29.89,North,360,13.0,22.0,73,0.01,,---,0.06,VWS V14.01,2013-10-23 03:35:00,
2013-10-22 23:40:00,39.6,31.0,29.89,North,360,14.0,22.0,71,0.01,,---,0.06,VWS V14.01,2013-10-23 03:40:00,
2013-10-22 23:45:00,39.5,30.9,29.89,North,360,12.0,23.0,71,0.01,,---,0.06,VWS V14.01,2013-10-23 03:45:00,
2013-10-22 23:50:00,39.6,31.0,29.88,North,360,12.0,23.0,71,0.01,,---,0.06,VWS V14.01,2013-10-23 03:50:00,
2013-10-22 23:55:00,39.6,30.6,29.89,North,360,5.0,23.0,70,0.01,,---,0.06,VWS V14.01,2013-10-23 03:55:00,